Cloud_Cover
4 5 5 18 100 100 100 100 100 100 69 96 100 91 88 4 0 0 0 0 5 5 7 54 100 100 100 100 100 100 100 100
5 5 5 100 100 100 100 100 100 99 100 100 67 39 0 0 0 0 0 0 4 5 10 69 100 100 100 100 100 100 100 100
5 25 100 100 100 100 100 100 100 86 58 63 12 0 0 0 2 0 1 4 0 5 30 81 100 100 100 100 100 100 100 100
17 96 100 100 100 99 90 67 63 74 39 0 0 0 0 1 1 0 0 2 1 5 54 84 95 100 100 100 100 100 100 100
99 100 100 100 100 84 63 19 86 10 5 1 0 0 0 0 0 0 2 5 5 4 20 70 84 100 100 100 100 100 100 100
100 100 100 100 86 65 91 49 12 5 0 0 0 0 0 2 1 4 5 5 5 0 6 82 76 86 100 100 100 100 100 100
100 100 100 84 52 98 98 6 5 0 0 0 0 0 0 0 0 0 0 1 1 0 6 41 64 78 100 90 99 100 100 97
100 100 98 93 100 68 7 26 0 0 0 0 0 0 0 0 1 0 0 0 0 4 8 5 5 79 100 100 100 100 100 100
100 100 88 100 24 18 7 0 0 0 0 0 0 0 0 0 0 0 0 0 1 5 5 5 16 93 100 100 100 100 100 100
100 65 96 5 55 3 0 0 0 0 0 0 0 0 0 0 1 5 0 0 5 5 5 5 68 99 100 100 100 100 100 100
24 45 14 74 4 0 0 0 0 0 0 0 0 0 0 1 5 5 0 0 0 5 5 5 81 100 100 100 100 100 100 100
35 16 99 5 0 0 0 0 0 0 0 0 0 0 0 3 5 4 0 0 5 5 5 6 78 100 100 100 100 100 100 100
78 100 7 4 0 0 0 0 0 0 0 0 0 0 0 5 5 0 0 0 5 5 5 9 89 94 100 100 100 100 100 100
99 19 4 0 0 0 0 0 0 0 0 0 0 0 0 5 5 0 0 0 4 5 5 43 100 100 100 100 100 100 100 100
46 5 0 0 0 0 0 0 0 0 0 0 0 0 5 5 2 0 0 0 0 5 52 87 79 100 100 100 100 100 100 100
5 2 0 0 0 0 0 0 0 0 0 0 0 0 3 3 0 0 0 0 0 4 100 100 97 100 100 100 100 100 100 100
5 0 0 0 0 0 0 0 0 0 0 0 0 0 0 0 0 0 0 0 0 4 100 100 100 100 100 100 100 100 100 100
0 0 0 0 0 0 0 0 0 0 0 0 0 0 0 0 0 0 0 0 0 59 96 98 100 100 99 100 100 100 100 100
0 0 0 0 0 0 0 0 0 0 0 0 0 0 0 1 0 0 0 0 0 19 99 51 90 99 91 98 100 100 100 100